Location: Newark
(48.6461°N, 4.3644°W)
Time: 08:13:59
(UTC+00:00)

Altair - Pass Details

Date: 19 January 2021
Orbit: 1501 x 1682 km, 47.2° (Epoch: 24 February)

Event Time Altitude Azimuth Distance (km) Brightness Sun altitude
Rises 05:01:32 0° 192° (SSW) 4,863 10.0 -29.3°
Reaches altitude 10° 05:05:26 10° 179° (S) 3,901 9.6 -28.6°
Maximum altitude 05:12:53 24° 130° (SE) 2,953 9.4 -27.4°
Drops below altitude 10° 05:20:23 10° 82° (E) 3,948 10.6 -26.2°
Sets 05:24:19 0° 70° (ENE) 4,935 11.2 -25.5°
